Weather History for KFUL - August, 2012

Change the Weather History Date:

Saturday, August 11, 2012

  Actual Average Record
Temperature  
Mean Temperature 84 °F 75 °F  
Max Temperature 95 °F 85 °F 95 °F (2012)
Min Temperature 73 °F 65 °F 60 °F (2010)
Degree Days  
Heating Degree Days 0 0  
Month to date heating degree days 0 0  
Since 1 June heating degree days 0 2  
Since 1 July heating degree days 0 0  
Cooling Degree Days 19 10  
Month to date cooling degree days 169 110  
Year to date cooling degree days 941 652  
Since 1 June cooling degree days 685 529  
Growing Degree Days 33 (Base 50)    
Moisture  
Dew Point 64 °F    
Average Humidity 55    
Maximum Humidity 73    
Minimum Humidity 36    
Precipitation  
Precipitation 0.00 in 0.01 in 0.04 in (1965)
Month to date precipitation 0.00 0.02  
Year to date precipitation 3.54 9.71  
Since 1 July precipitation 0.01 0.06  
Snow  
Snow 0.00 in - - ()
Month to date snowfall 0.0  
Year to date snowfall 0.0  
Since 1 July snowfall 0.0  
Snow Depth 0.00 in    
Sea Level Pressure  
Sea Level Pressure 29.75 in    
Wind  
Wind Speed 3 mph (SSW)    
Max Wind Speed 12 mph    
Max Gust Speed 16 mph    
Visibility 10 miles    
Events      
T = Trace of Precipitation, MM = Missing Value Source: NWS Daily Summary

Daily Weather History Graph

Daily Weather History Graph

Search for Another Location

Airport or City:

Trip Planner

Search our weather history database for the weather conditions in past years. The results will help you decide how hot, cold, wet, or windy it might be!

Date:

Astronomy

Aug. 11, 2012 Rise Set
Actual Time 6:11 AM PDT 7:42 PM PDT
Civil Twilight 5:44 AM PDT 8:08 PM PDT
Nautical Twilight 5:12 AM PDT 8:40 PM PDT
Astronomical Twilight 4:39 AM PDT 9:14 PM PDT
Moon 12:47 AM PDT (8/11) 3:15 PM PDT (8/11)
Length of Visible Light 14h 24m
Length of Day
13h 31m
Waning Crescent, 31% of the Moon is Illuminated
Aug 11
Waning Crescent
Aug 17
New
Aug 24
First Quarter
Aug 31
Full
Sep 8
Last Quarter

Hourly Weather History & Observations

Time (PDT) Temp. Heat Index Dew Point Humidity Pressure Visibility Wind Dir Wind Speed Gust Speed Precip Events Conditions
12:53 AM 73.9 °F - 64.9 °F 73% 29.74 in 10.0 mi Calm Calm - N/A   Clear
1:53 AM 73.9 °F - 64.9 °F 73% 29.73 in 10.0 mi Calm Calm - N/A   Clear
2:53 AM 73.9 °F - 64.9 °F 73% 29.73 in 10.0 mi Calm Calm - N/A   Clear
3:53 AM 73.9 °F - 64.9 °F 73% 29.71 in 10.0 mi Calm Calm - N/A   Clear
4:53 AM 73.9 °F - 64.9 °F 73% 29.72 in 10.0 mi Calm Calm - N/A   Clear
5:53 AM 73.0 °F - 64.9 °F 76% 29.73 in 10.0 mi South 4.6 mph - N/A   Clear
6:53 AM 75.0 °F - 64.9 °F 71% 29.75 in 10.0 mi Calm Calm - N/A   Unknown
7:53 AM 77.0 °F - 64.9 °F 66% 29.76 in 10.0 mi Calm Calm - N/A   Unknown
8:53 AM 80.1 °F 81.9 °F 64.9 °F 60% 29.78 in 10.0 mi South 3.5 mph - N/A   Clear
9:53 AM 82.9 °F 84.6 °F 64.9 °F 54% 29.78 in 10.0 mi Calm Calm - N/A   Unknown
10:53 AM 88.0 °F 89.6 °F 64.9 °F 46% 29.77 in 10.0 mi Variable 4.6 mph - N/A   Clear
11:53 AM 90.0 °F 91.7 °F 64.9 °F 43% 29.76 in 10.0 mi Variable 3.5 mph - N/A   Clear
12:53 PM 91.0 °F 91.5 °F 62.1 °F 38% 29.75 in 10.0 mi South 5.8 mph - N/A   Clear
1:53 PM 93.0 °F 93.8 °F 62.1 °F 36% 29.74 in 10.0 mi SSW 6.9 mph - N/A   Clear
2:53 PM 93.9 °F 94.8 °F 62.1 °F 35% 29.73 in 10.0 mi Variable 3.5 mph - N/A   Clear
3:53 PM 91.9 °F 91.8 °F 61.0 °F 35% 29.73 in 10.0 mi SSW 8.1 mph - N/A   Clear
4:53 PM 90.0 °F 91.3 °F 64.0 °F 42% 29.73 in 10.0 mi Variable 5.8 mph - N/A   Clear
5:53 PM 86.0 °F 86.8 °F 63.0 °F 46% 29.76 in 10.0 mi SW 8.1 mph - N/A   Clear
6:53 PM 84.0 °F 84.9 °F 63.0 °F 49% 29.76 in 10.0 mi SW 6.9 mph - N/A   Unknown
7:53 PM 82.0 °F 84.1 °F 66.0 °F 58% 29.77 in 10.0 mi SW 6.9 mph - N/A   Clear
8:53 PM 80.1 °F 82.1 °F 66.0 °F 62% 29.78 in 10.0 mi Calm Calm - N/A   Unknown
9:53 PM 80.1 °F 80.9 °F 60.1 °F 50% 29.79 in 10.0 mi South 3.5 mph - N/A   Unknown
10:53 PM 80.1 °F 80.7 °F 59.0 °F 48% 29.80 in 10.0 mi South 4.6 mph - N/A   Unknown
11:53 PM 79.0 °F - 62.1 °F 56% 29.79 in 10.0 mi Calm Calm - N/A   Clear